2021/12/12 23:25:34+0000,-42.95,-23.83,-31.23,-48.11,-46.74,-48.24
2021/12/12 23:26:26+0000,-41.60,-22.77,-32.05,-37.49,-47.29,-48.19
2021/12/12 23:27:18+0000,-43.38,-29.58,-31.29,-46.07,-47.53,-49.12
2021/12/12 23:28:10+0000,-42.40,-23.94,-29.67,-37.06,-46.81,-49.36
2021/12/12 23:29:02+0000,-42.42,-23.44,-29.38,-35.44,-45.85,-48.67
2021/12/12 23:29:55+0000,-42.50,-24.21,-32.07,-35.40,-47.31,-48.32
2021/12/12 23:30:47+0000,-44.35,-30.01,-32.16,-42.76,-47.59,-48.29
2021/12/12 23:31:48+0000,-43.78,-25.69,-31.21,-47.74,-47.09,-46.28
2021/12/12 23:32:40+0000,-44.20,-25.24,-31.63,-41.87,-47.26,-45.64
2021/12/12 23:33:32+0000,-43.73,-22.03,-31.81,-45.08,-45.02,-45.46
2021/12/12 23:34:24+0000,-43.69,-22.19,-31.04,-40.00,-46.96,-46.30
2021/12/12 23:35:16+0000,-41.51,-24.88,-32.73,-38.44,-46.20,-45.80
2021/12/12 23:36:08+0000,-42.30,-25.62,-32.90,-38.44,-44.01,-47.86
2021/12/12 23:37:00+0000,-41.95,-21.74,-26.20,-41.49,-45.29,-47.94
2021/12/12 23:37:52+0000,-42.04,-22.09,-31.46,-37.84,-47.49,-47.82
2021/12/12 23:38:44+0000,-42.47,-29.35,-31.00,-36.74,-47.71,-48.08
2021/12/12 23:39:36+0000,-42.90,-30.13,-28.56,-39.14,-45.85,-48.20
2021/12/12 23:40:30+0000,-42.88,-21.95,-25.90,-36.46,-45.14,-48.66
2021/12/12 23:41:31+0000,-42.30,-18.79,-25.15,-36.12,-45.90,-48.50
2021/12/12 23:42:23+0000,-41.77,-20.96,-30.19,-36.70,-47.54,-47.57
2021/12/12 23:43:15+0000,-42.63,-21.79,-30.78,-38.02,-47.39,-47.55
2021/12/12 23:44:07+0000,-41.86,-26.81,-32.61,-40.29,-44.78,-47.86
2021/12/12 23:44:59+0000,-42.73,-26.33,-32.62,-31.00,-46.01,-47.73
2021/12/12 23:45:51+0000,-42.41,-32.81,-29.97,-35.79,-46.14,-47.56
2021/12/12 23:46:43+0000,-42.34,-26.28,-31.93,-37.60,-45.93,-48.33
2021/12/12 23:47:35+0000,-42.01,-33.49,-30.97,-42.07,-46.88,-48.24
2021/12/12 23:48:27+0000,-40.02,-26.58,-32.66,-37.06,-45.04,-49.35
2021/12/12 23:49:20+0000,-42.65,-27.68,-31.29,-39.30,-46.79,-48.86
2021/12/12 23:50:13+0000,-42.17,-25.55,-32.15,-38.21,-46.45,-47.89
2021/12/12 23:51:14+0000,-43.82,-27.66,-31.11,-34.99,-46.35,-46.11
2021/12/12 23:52:06+0000,-42.68,-32.34,-30.39,-35.53,-44.11,-46.42
2021/12/12 23:52:58+0000,-44.58,-24.75,-32.85,-31.26,-47.20,-45.56
2021/12/12 23:53:50+0000,-43.38,-32.81,-32.22,-31.65,-46.57,-45.68
2021/12/12 23:54:42+0000,-42.44,-23.27,-34.17,-39.08,-47.12,-45.76
2021/12/12 23:55:34+0000,-42.67,-20.93,-32.39,-47.13,-46.35,-46.26
2021/12/12 23:56:26+0000,-42.55,-22.48,-33.78,-27.14,-47.84,-48.58
2021/12/12 23:57:19+0000,-41.76,-26.51,-30.79,-48.85,-46.55,-48.31
2021/12/12 23:58:11+0000,-42.36,-29.29,-33.55,-38.36,-47.04,-48.54
2021/12/12 23:59:03+0000,-41.98,-29.43,-32.18,-47.64,-45.99,-48.43
2021/12/12 23:59:56+0000,-42.46,-28.85,-33.05,-34.69,-45.38,-48.49
2021/12/13 00:00:52+0000,-42.40,-22.79,-30.30,-35.44,-46.63,-48.45
2021/12/13 00:01:54+0000,-41.22,-20.98,-31.22,-36.38,-47.26,-48.32
2021/12/13 00:02:46+0000,-41.98,-24.87,-30.09,-37.60,-47.28,-47.93
2021/12/13 00:03:38+0000,-43.52,-26.80,-32.70,-37.18,-47.04,-48.13
2021/12/13 00:04:30+0000,-41.92,-23.82,-32.62,-33.57,-47.18,-47.49
2021/12/13 00:05:22+0000,-42.69,-23.78,-32.70,-36.42,-46.03,-47.93
2021/12/13 00:06:14+0000,-42.21,-25.37,-33.14,-37.84,-47.66,-48.36
2021/12/13 00:07:06+0000,-41.63,-31.84,-25.56,-36.92,-45.24,-48.82
2021/12/13 00:07:58+0000,-43.41,-26.32,-33.77,-27.73,-45.83,-49.47
2021/12/13 00:08:50+0000,-41.87,-32.40,-33.44,-31.13,-47.89,-48.15
2021/12/13 00:09:44+0000,-43.22,-24.74,-32.84,-37.74,-47.19,-48.95
2021/12/13 00:10:36+0000,-41.60,-30.38,-32.00,-31.22,-46.42,-49.42
2021/12/13 00:11:36+0000,-42.45,-31.50,-26.18,-33.48,-46.79,-46.35
2021/12/13 00:12:28+0000,-43.16,-28.72,-27.92,-39.67,-45.49,-46.63
2021/12/13 00:13:20+0000,-42.13,-32.03,-33.25,-28.42,-47.01,-46.48
2021/12/13 00:14:13+0000,-43.38,-22.97,-33.77,-31.08,-44.12,-46.24
2021/12/13 00:15:05+0000,-41.26,-32.31,-25.73,-39.65,-47.46,-46.20
2021/12/13 00:15:57+0000,-42.56,-24.44,-33.46,-40.22,-45.56,-45.77
2021/12/13 00:16:49+0000,-41.55,-21.65,-33.01,-46.75,-44.83,-48.82
2021/12/13 00:17:41+0000,-42.76,-23.57,-32.77,-40.35,-46.69,-48.38
2021/12/13 00:18:33+0000,-42.38,-27.13,-31.01,-47.78,-46.77,-49.24
2021/12/13 00:19:25+0000,-41.46,-26.62,-31.31,-41.78,-47.03,-48.45
2021/12/13 00:20:18+0000,-40.84,-27.71,-31.38,-47.52,-47.32,-49.36
2021/12/13 00:21:19+0000,-41.74,-24.44,-29.79,-47.28,-46.09,-48.58
2021/12/13 00:22:11+0000,-38.09,-24.10,-33.82,-42.89,-47.45,-48.06
2021/12/13 00:23:04+0000,-37.29,-26.43,-32.82,-47.25,-47.13,-48.29
2021/12/13 00:23:56+0000,-42.50,-26.45,-33.70,-43.09,-46.30,-48.43
2021/12/13 00:24:48+0000,-42.68,-25.55,-33.11,-47.71,-46.78,-48.46
2021/12/13 00:25:40+0000,-41.28,-22.72,-31.52,-43.66,-46.36,-48.51
2021/12/13 00:26:32+0000,-41.78,-25.20,-30.69,-43.64,-46.08,-48.68
2021/12/13 00:27:24+0000,-41.64,-24.24,-34.58,-44.87,-47.88,-47.69
2021/12/13 00:28:16+0000,-43.01,-27.88,-33.68,-43.53,-46.98,-49.07
2021/12/13 00:29:08+0000,-42.36,-26.44,-31.84,-41.56,-46.33,-46.30
2021/12/13 00:30:01+0000,-42.73,-23.91,-30.84,-44.98,-46.20,-46.01
2021/12/13 00:31:02+0000,-41.56,-22.99,-32.16,-46.91,-47.23,-46.47
2021/12/13 00:31:55+0000,-42.39,-24.38,-33.23,-44.21,-47.42,-46.10
2021/12/13 00:32:47+0000,-42.57,-24.66,-31.75,-43.22,-45.50,-46.34
2021/12/13 00:33:39+0000,-38.64,-26.09,-32.37,-43.56,-47.85,-45.77
2021/12/13 00:34:31+0000,-41.46,-26.05,-32.93,-41.94,-46.27,-47.58
2021/12/13 00:35:23+0000,-41.83,-26.77,-32.77,-44.29,-47.26,-48.00
2021/12/13 00:36:15+0000,-41.15,-29.71,-29.83,-45.29,-46.73,-48.39
2021/12/13 00:37:07+0000,-41.64,-28.46,-33.90,-45.34,-46.53,-47.40
2021/12/13 00:37:59+0000,-42.76,-21.97,-32.44,-40.83,-46.87,-47.68
2021/12/13 00:38:51+0000,-38.89,-32.51,-26.15,-42.68,-47.26,-48.14
2021/12/13 00:39:45+0000,-42.78,-27.42,-29.07,-42.28,-46.88,-48.60
2021/12/13 00:40:37+0000,-40.68,-28.71,-32.60,-44.08,-47.06,-48.63
2021/12/13 00:41:37+0000,-41.58,-27.52,-32.33,-42.24,-46.61,-48.54
2021/12/13 00:42:29+0000,-42.58,-20.84,-32.68,-41.30,-47.12,-47.89
2021/12/13 00:43:21+0000,-41.19,-32.49,-32.65,-42.18,-46.76,-47.90
2021/12/13 00:44:13+0000,-42.67,-27.82,-32.63,-39.97,-47.02,-48.77
2021/12/13 00:45:06+0000,-41.82,-32.04,-32.60,-43.83,-47.11,-46.45
2021/12/13 00:45:58+0000,-33.96,-23.27,-34.53,-43.26,-46.21,-46.35
2021/12/13 00:46:50+0000,-41.37,-32.05,-32.16,-43.75,-46.39,-46.93
2021/12/13 00:47:42+0000,-42.17,-25.35,-33.90,-44.09,-46.42,-46.44
2021/12/13 00:48:34+0000,-42.93,-20.34,-31.17,-47.48,-46.58,-45.63
2021/12/13 00:49:26+0000,-38.60,-25.96,-32.93,-42.09,-46.20,-45.88
2021/12/13 00:50:19+0000,-33.55,-23.14,-30.37,-46.70,-47.29,-47.99
2021/12/13 00:51:20+0000,-39.54,-31.00,-30.65,-43.83,-47.78,-47.54
2021/12/13 00:52:12+0000,-41.83,-24.08,-32.77,-44.38,-48.15,-48.22
2021/12/13 00:53:04+0000,-41.64,-25.12,-33.78,-47.10,-46.84,-48.15
2021/12/13 00:53:56+0000,-36.20,-26.98,-34.02,-42.63,-46.28,-47.38
2021/12/13 00:54:48+0000,-34.61,-24.47,-32.62,-47.27,-47.57,-47.41
2021/12/13 00:55:40+0000,-39.73,-23.61,-33.45,-45.28,-47.19,-47.41
2021/12/13 00:56:32+0000,-41.00,-27.93,-33.50,-46.92,-47.99,-48.10
2021/12/13 00:57:24+0000,-36.08,-27.77,-33.30,-41.29,-46.39,-48.48
2021/12/13 00:58:16+0000,-38.16,-23.29,-33.06,-44.87,-47.37,-48.21
2021/12/13 00:59:08+0000,-34.76,-25.76,-34.77,-44.15,-46.71,-48.05
2021/12/13 01:00:02+0000,-40.89,-24.12,-30.69,-41.88,-46.59,-48.32
2021/12/13 01:01:03+0000,-40.85,-28.80,-33.34,-46.91,-47.06,-49.45
2021/12/13 01:01:55+0000,-37.88,-28.06,-33.43,-40.51,-47.60,-47.10
2021/12/13 01:02:47+0000,-33.37,-24.54,-33.88,-46.02,-46.42,-46.66
2021/12/13 01:03:39+0000,-41.27,-24.97,-32.41,-41.26,-42.19,-41.90
2021/12/13 01:04:31+0000,-35.71,-25.53,-34.11,-42.25,-47.36,-45.37
2021/12/13 01:05:23+0000,-32.25,-28.36,-33.38,-43.46,-46.07,-46.30
2021/12/13 01:06:15+0000,-41.39,-30.46,-33.74,-44.25,-46.81,-45.76
2021/12/13 01:07:07+0000,-35.09,-26.70,-34.30,-43.57,-46.85,-48.38
2021/12/13 01:07:59+0000,-38.78,-29.12,-33.80,-42.36,-47.66,-48.77
2021/12/13 01:08:51+0000,-36.48,-31.98,-34.34,-39.51,-46.97,-48.07
2021/12/13 01:09:45+0000,-42.07,-27.44,-33.46,-43.79,-47.36,-48.77
2021/12/13 01:10:37+0000,-40.34,-33.11,-33.51,-44.55,-46.58,-48.21
2021/12/13 01:11:38+0000,-39.46,-26.23,-33.16,-45.55,-47.28,-48.39
2021/12/13 01:12:30+0000,-42.07,-28.74,-33.27,-41.77,-47.24,-48.47
2021/12/13 01:13:22+0000,-40.41,-29.02,-33.55,-42.77,-46.76,-49.37
2021/12/13 01:14:14+0000,-43.43,-30.34,-33.78,-43.67,-46.52,-48.91
2021/12/13 01:15:06+0000,-38.75,-32.43,-33.56,-45.51,-46.93,-48.55
2021/12/13 01:15:58+0000,-27.33,-27.49,-33.49,-37.21,-46.83,-48.62
2021/12/13 01:16:50+0000,-35.06,-32.77,-34.16,-46.30,-46.93,-49.06
2021/12/13 01:17:42+0000,-38.34,-28.59,-33.86,-43.93,-47.59,-48.56
2021/12/13 01:18:34+0000,-37.49,-32.94,-34.38,-45.97,-45.91,-48.73
2021/12/13 01:19:26+0000,-40.28,-29.28,-33.80,-44.58,-47.59,-46.67
2021/12/13 01:20:20+0000,-39.83,-31.52,-33.81,-47.27,-48.10,-47.46
2021/12/13 01:21:21+0000,-40.76,-34.25,-33.55,-46.70,-46.25,-48.09
2021/12/13 01:22:13+0000,-41.45,-22.75,-34.37,-45.50,-46.35,-46.81
2021/12/13 01:23:05+0000,-39.62,-34.13,-33.44,-43.81,-47.01,-46.50
2021/12/13 01:23:57+0000,-39.27,-31.17,-33.42,-45.64,-46.76,-47.35
2021/12/13 01:24:49+0000,-39.66,-30.83,-33.10,-46.27,-47.44,-48.84
2021/12/13 01:25:41+0000,-41.81,-23.77,-34.61,-43.55,-46.14,-48.53
2021/12/13 01:26:33+0000,-41.27,-31.42,-34.03,-47.13,-47.07,-48.15
2021/12/13 01:27:25+0000,-40.98,-30.95,-34.36,-45.24,-47.35,-48.69
2021/12/13 01:28:17+0000,-36.10,-27.91,-33.55,-46.12,-46.12,-48.24
2021/12/13 01:29:09+0000,-40.69,-28.94,-34.54,-41.09,-47.32,-48.98
2021/12/13 01:30:03+0000,-40.26,-22.72,-34.14,-46.23,-46.27,-49.62
2021/12/13 01:31:03+0000,-42.07,-24.44,-33.83,-46.02,-47.59,-49.03
2021/12/13 01:31:55+0000,-36.43,-26.56,-33.45,-43.38,-48.28,-48.69
2021/12/13 01:32:47+0000,-39.63,-29.29,-34.35,-46.71,-47.28,-47.83
2021/12/13 01:33:39+0000,-40.35,-29.01,-34.48,-44.98,-46.72,-47.56
2021/12/13 01:34:31+0000,-42.61,-29.04,-34.10,-38.86,-46.90,-48.86
2021/12/13 01:35:23+0000,-42.26,-30.11,-34.29,-44.85,-45.94,-47.43
2021/12/13 01:36:15+0000,-42.84,-29.32,-34.13,-43.70,-46.35,-47.90
2021/12/13 01:37:07+0000,-41.98,-30.01,-34.25,-44.93,-46.08,-46.50
2021/12/13 01:37:59+0000,-43.92,-28.89,-33.59,-45.35,-46.94,-46.52
2021/12/13 01:38:51+0000,-42.58,-34.08,-34.51,-46.54,-46.19,-46.11
2021/12/13 01:39:44+0000,-41.01,-29.09,-34.10,-45.43,-46.27,-45.63
2021/12/13 01:40:36+0000,-38.74,-32.24,-34.16,-45.27,-46.89,-47.73
2021/12/13 01:41:37+0000,-40.41,-26.97,-34.60,-44.21,-46.00,-48.03
2021/12/13 01:42:29+0000,-40.65,-27.54,-33.79,-45.33,-46.84,-47.90
2021/12/13 01:43:21+0000,-41.25,-31.91,-33.58,-44.82,-46.50,-47.49
2021/12/13 01:44:13+0000,-42.14,-28.80,-34.33,-45.28,-47.94,-48.04
2021/12/13 01:45:05+0000,-39.89,-32.88,-34.42,-44.92,-47.10,-47.79
2021/12/13 01:45:57+0000,-36.96,-29.41,-34.57,-46.37,-46.55,-47.49
2021/12/13 01:46:49+0000,-41.27,-28.26,-33.84,-45.98,-46.68,-47.54
2021/12/13 01:47:41+0000,-41.28,-27.59,-35.06,-44.94,-47.00,-49.25
2021/12/13 01:48:33+0000,-41.96,-26.07,-34.06,-47.78,-46.81,-47.93
2021/12/13 01:49:25+0000,-39.14,-23.27,-34.81,-46.54,-46.38,-47.63
2021/12/13 01:50:19+0000,-38.79,-27.98,-32.31,-48.23,-46.31,-49.07
2021/12/13 01:51:19+0000,-41.06,-32.70,-34.16,-47.67,-47.19,-46.92
2021/12/13 01:52:11+0000,-40.55,-27.93,-33.44,-47.22,-46.11,-46.99
2021/12/13 01:53:03+0000,-43.20,-25.87,-33.94,-47.25,-46.72,-46.38
2021/12/13 01:53:55+0000,-36.34,-26.90,-35.52,-46.59,-46.20,-46.13
2021/12/13 01:54:48+0000,-41.25,-24.91,-34.58,-46.85,-46.85,-46.63
2021/12/13 01:55:40+0000,-38.77,-24.33,-34.02,-46.02,-46.41,-46.61
2021/12/13 01:56:32+0000,-40.65,-29.46,-33.12,-46.32,-46.82,-47.31
2021/12/13 01:57:24+0000,-38.97,-24.28,-34.40,-46.86,-47.72,-48.21
2021/12/13 01:58:16+0000,-38.98,-27.39,-33.75,-46.01,-46.92,-48.33
2021/12/13 01:59:08+0000,-40.34,-25.64,-34.51,-46.83,-46.65,-48.04
2021/12/13 02:00:01+0000,-40.13,-27.68,-33.62,-48.45,-46.57,-48.57
2021/12/13 02:01:02+0000,-39.47,-29.43,-33.69,-47.68,-47.35,-48.17
2021/12/13 02:01:54+0000,-41.67,-25.16,-33.57,-47.37,-46.82,-49.22
2021/12/13 02:02:46+0000,-40.99,-25.75,-34.92,-47.21,-46.31,-49.03
2021/12/13 02:03:38+0000,-34.91,-29.25,-34.23,-47.87,-47.01,-48.66
2021/12/13 02:04:30+0000,-42.40,-27.61,-34.21,-48.06,-47.30,-47.67
2021/12/13 02:05:22+0000,-39.95,-27.88,-34.12,-45.13,-46.39,-47.45
2021/12/13 02:06:14+0000,-43.27,-31.51,-34.51,-47.72,-46.43,-47.74
2021/12/13 02:07:06+0000,-39.80,-32.74,-32.71,-47.47,-46.20,-46.75
2021/12/13 02:07:58+0000,-42.57,-23.87,-34.21,-46.95,-46.73,-46.83
2021/12/13 02:08:50+0000,-39.67,-32.34,-33.57,-46.39,-45.98,-47.22
2021/12/13 02:09:43+0000,-41.86,-31.21,-34.12,-46.98,-46.43,-46.63
2021/12/13 02:10:35+0000,-39.31,-32.37,-34.00,-47.36,-46.40,-46.40
2021/12/13 02:11:37+0000,-40.01,-31.96,-33.74,-47.95,-46.99,-46.71
2021/12/13 02:12:29+0000,-41.36,-25.41,-33.34,-47.70,-46.53,-48.14
2021/12/13 02:13:21+0000,-39.20,-32.29,-34.18,-47.20,-47.07,-47.26
2021/12/13 02:14:13+0000,-34.64,-28.45,-33.69,-47.15,-47.47,-47.90
2021/12/13 02:15:05+0000,-39.38,-31.39,-32.62,-47.06,-46.98,-47.51
2021/12/13 02:15:57+0000,-38.15,-25.36,-32.99,-46.76,-46.62,-47.78
2021/12/13 02:16:49+0000,-37.40,-27.26,-33.57,-48.15,-47.74,-47.82
2021/12/13 02:17:41+0000,-40.84,-26.30,-34.84,-47.64,-46.52,-48.11
2021/12/13 02:18:33+0000,-39.38,-25.65,-32.79,-47.23,-47.06,-47.73
2021/12/13 02:19:25+0000,-38.64,-24.79,-34.22,-47.12,-47.66,-48.20
2021/12/13 02:20:18+0000,-36.88,-29.42,-33.68,-47.77,-47.01,-46.91
2021/12/13 02:21:19+0000,-36.95,-28.90,-33.58,-47.50,-47.14,-48.06
2021/12/13 02:22:11+0000,-37.45,-27.41,-34.10,-47.31,-46.77,-47.77
2021/12/13 02:23:03+0000,-38.96,-28.68,-33.29,-46.40,-45.99,-48.24
2021/12/13 02:23:55+0000,-37.89,-29.91,-33.92,-47.22,-47.21,-47.73
2021/12/13 02:24:47+0000,-38.73,-23.58,-34.26,-48.33,-46.79,-48.32
2021/12/13 02:25:39+0000,-38.83,-23.27,-33.96,-47.80,-46.48,-45.81
2021/12/13 02:26:31+0000,-41.35,-27.71,-34.40,-47.62,-46.58,-46.18
2021/12/13 02:27:23+0000,-39.52,-30.68,-33.08,-47.63,-46.47,-46.27
2021/12/13 02:28:15+0000,-42.46,-22.80,-34.13,-45.74,-47.03,-46.26
2021/12/13 02:29:07+0000,-41.65,-31.89,-33.85,-44.08,-46.36,-46.04
2021/12/13 02:30:00+0000,-40.20,-27.28,-34.59,-47.67,-46.38,-47.99
2021/12/13 02:31:03+0000,-40.02,-26.87,-33.74,-48.04,-47.15,-47.91
2021/12/13 02:31:55+0000,-39.18,-31.05,-33.31,-47.40,-46.68,-47.85
2021/12/13 02:32:47+0000,-41.70,-26.07,-33.00,-47.77,-48.44,-47.61
2021/12/13 02:33:39+0000,-39.45,-28.23,-33.59,-47.53,-46.48,-47.60
2021/12/13 02:34:31+0000,-40.58,-30.48,-32.67,-47.72,-46.59,-47.35
2021/12/13 02:35:23+0000,-31.66,-28.86,-34.24,-47.22,-46.85,-48.47
2021/12/13 02:36:15+0000,-41.10,-29.42,-33.38,-47.48,-47.51,-48.39
2021/12/13 02:37:07+0000,-41.92,-31.48,-33.55,-47.66,-46.38,-48.18
2021/12/13 02:37:59+0000,-42.05,-29.44,-33.04,-48.33,-46.69,-48.33
2021/12/13 02:38:51+0000,-40.95,-33.15,-33.80,-47.57,-46.84,-48.02
2021/12/13 02:39:44+0000,-41.24,-29.43,-33.12,-48.29,-47.43,-48.24
2021/12/13 02:40:36+0000,-40.14,-33.28,-31.17,-47.25,-46.47,-48.29
2021/12/13 02:41:37+0000,-41.81,-29.82,-31.82,-47.59,-48.07,-46.57
2021/12/13 02:42:29+0000,-42.02,-29.83,-29.85,-47.23,-46.81,-46.70
2021/12/13 02:43:21+0000,-40.66,-32.58,-33.36,-48.05,-46.94,-47.01
2021/12/13 02:44:13+0000,-42.89,-27.30,-33.36,-47.63,-46.92,-46.47
2021/12/13 02:45:05+0000,-41.52,-33.21,-34.03,-47.72,-47.49,-46.53
2021/12/13 02:45:57+0000,-39.75,-27.21,-33.98,-47.28,-46.03,-45.97
2021/12/13 02:46:49+0000,-40.45,-31.95,-33.94,-47.72,-47.31,-46.26
2021/12/13 02:47:41+0000,-39.97,-28.56,-32.78,-47.38,-45.91,-47.87
2021/12/13 02:48:33+0000,-41.58,-28.05,-34.24,-47.45,-47.08,-47.51
2021/12/13 02:49:25+0000,-40.60,-29.69,-33.10,-47.49,-46.60,-47.27
2021/12/13 02:50:18+0000,-40.02,-30.88,-34.20,-47.08,-47.33,-47.77
2021/12/13 02:51:20+0000,-39.46,-32.51,-33.16,-46.56,-46.11,-47.12
2021/12/13 02:52:12+0000,-40.22,-24.87,-33.76,-47.69,-47.07,-47.63
2021/12/13 02:53:04+0000,-39.46,-28.73,-34.12,-47.51,-47.49,-47.45
2021/12/13 02:53:56+0000,-39.10,-28.48,-33.03,-47.74,-46.98,-47.23
2021/12/13 02:54:48+0000,-40.59,-29.19,-34.22,-47.73,-46.61,-47.53
2021/12/13 02:55:40+0000,-40.52,-27.66,-33.87,-46.93,-46.84,-48.17
2021/12/13 02:56:32+0000,-41.62,-27.41,-33.22,-46.75,-46.44,-47.85
2021/12/13 02:57:24+0000,-40.60,-26.86,-33.08,-47.32,-46.13,-45.68
2021/12/13 02:58:16+0000,-41.19,-23.46,-34.18,-46.80,-47.03,-45.91
2021/12/13 02:59:08+0000,-41.11,-25.27,-33.82,-46.75,-46.67,-46.02
2021/12/13 03:00:01+0000,-40.04,-28.71,-33.50,-46.40,-46.44,-45.71
2021/12/13 03:01:02+0000,-40.37,-30.49,-34.37,-46.29,-46.81,-46.21
2021/12/13 03:01:54+0000,-35.58,-29.40,-33.64,-47.29,-47.16,-45.88
2021/12/13 03:02:46+0000,-38.89,-26.81,-33.44,-46.40,-46.84,-48.39
2021/12/13 03:03:38+0000,-40.00,-26.11,-34.54,-46.55,-47.59,-47.96
2021/12/13 03:04:30+0000,-39.24,-30.18,-34.05,-45.85,-47.54,-47.64
2021/12/13 03:05:23+0000,-37.41,-31.80,-32.37,-45.57,-47.60,-47.79
2021/12/13 03:06:15+0000,-41.19,-27.62,-33.50,-46.08,-47.61,-47.27
2021/12/13 03:07:07+0000,-39.26,-26.50,-32.42,-46.01,-46.47,-47.70
2021/12/13 03:07:59+0000,-42.51,-30.37,-32.98,-45.62,-47.31,-47.47
2021/12/13 03:08:51+0000,-40.05,-33.81,-34.64,-46.53,-46.87,-47.89
2021/12/13 03:09:44+0000,-41.82,-28.12,-32.55,-46.56,-46.93,-47.47
2021/12/13 03:10:36+0000,-39.54,-32.27,-33.18,-45.91,-47.30,-47.85
2021/12/13 03:11:36+0000,-38.99,-33.40,-32.80,-46.89,-46.71,-48.84
2021/12/13 03:12:28+0000,-41.29,-29.03,-33.72,-46.67,-46.52,-47.09
2021/12/13 03:13:20+0000,-40.15,-33.78,-33.45,-47.62,-47.58,-47.70
2021/12/13 03:14:12+0000,-40.63,-29.61,-33.06,-46.60,-46.91,-47.00
2021/12/13 03:15:04+0000,-41.74,-32.49,-33.11,-46.67,-47.21,-46.08
2021/12/13 03:15:56+0000,-40.00,-29.46,-34.54,-45.87,-47.32,-45.77
2021/12/13 03:16:49+0000,-39.52,-28.51,-33.91,-45.28,-46.21,-45.48
2021/12/13 03:17:41+0000,-40.40,-29.49,-33.39,-46.17,-45.81,-45.67
2021/12/13 03:18:33+0000,-40.19,-31.15,-33.97,-46.57,-46.29,-46.04
2021/12/13 03:19:25+0000,-35.79,-30.90,-34.53,-45.47,-46.12,-47.45
2021/12/13 03:20:18+0000,-36.82,-30.16,-33.67,-47.00,-46.54,-46.89
2021/12/13 03:21:18+0000,-37.57,-29.51,-34.39,-46.92,-46.39,-47.09
2021/12/13 03:22:10+0000,-40.40,-29.72,-33.62,-47.26,-47.47,-47.34
2021/12/13 03:23:02+0000,-40.51,-28.41,-33.81,-47.95,-47.20,-47.51
2021/12/13 03:23:54+0000,-38.29,-30.10,-34.16,-46.79,-46.55,-47.90
2021/12/13 03:24:46+0000,-40.52,-28.96,-33.71,-46.86,-46.76,-47.27
2021/12/13 03:25:38+0000,-40.36,-28.97,-34.23,-47.40,-46.61,-47.58
2021/12/13 03:26:30+0000,-40.62,-29.30,-34.52,-47.16,-46.56,-47.72
2021/12/13 03:27:22+0000,-39.32,-28.70,-33.58,-47.66,-47.09,-47.59
2021/12/13 03:28:15+0000,-41.32,-29.09,-35.04,-47.87,-46.65,-47.66
2021/12/13 03:29:07+0000,-30.80,-31.93,-34.62,-47.06,-46.84,-47.95
2021/12/13 03:29:59+0000,-42.45,-28.45,-34.47,-47.43,-46.60,3.72
2021/12/13 03:30:51+0000,-40.12,-29.81,-34.26,-47.56,-46.96,-46.04
2021/12/13 03:31:52+0000,-36.25,-31.19,-33.79,-48.19,-46.30,-47.10
2021/12/13 03:32:44+0000,-42.05,-30.47,-34.64,-47.33,-46.70,-46.18
2021/12/13 03:33:37+0000,-40.90,-32.12,-34.26,-47.17,-46.45,-45.89
2021/12/13 03:34:29+0000,-39.26,-30.78,-34.28,-48.24,-46.53,-45.89
2021/12/13 03:35:21+0000,-38.75,-35.02,-34.88,-48.11,-46.69,-46.10
2021/12/13 03:36:13+0000,-40.37,-25.77,-34.44,-48.41,-47.19,-47.77
2021/12/13 03:37:05+0000,-38.25,-33.41,-34.29,-48.05,-47.32,-47.57
2021/12/13 03:37:57+0000,-36.64,-31.12,-33.88,-47.40,-47.05,-47.45
2021/12/13 03:38:49+0000,-38.64,-27.01,-33.29,-47.91,-47.08,-47.47
2021/12/13 03:39:42+0000,-40.98,-27.27,-34.47,-47.56,-46.60,-47.49
2021/12/13 03:40:34+0000,-39.46,-31.31,-34.57,-47.67,-46.73,-48.19
2021/12/13 03:41:35+0000,-40.61,-33.13,-35.51,-48.04,-46.46,-47.62
2021/12/13 03:42:27+0000,-38.83,-29.73,-34.35,-48.22,-46.61,-47.52
2021/12/13 03:43:19+0000,-39.59,-29.09,-33.67,-47.50,-46.74,-47.92
2021/12/13 03:44:11+0000,-39.70,-31.12,-35.22,-47.75,-46.65,-47.10
2021/12/13 03:45:03+0000,-40.87,-29.38,-33.98,-47.08,-47.22,-44.38
2021/12/13 03:45:55+0000,-39.22,-30.21,-34.49,-47.11,-47.07,-44.97
2021/12/13 03:46:47+0000,-36.72,-29.52,-34.98,-47.15,-47.04,-44.90
2021/12/13 03:47:39+0000,-40.72,-32.18,-34.77,-47.67,-46.14,-44.91
2021/12/13 03:48:31+0000,-38.81,-28.82,-35.16,-47.71,-46.54,-45.61
2021/12/13 03:49:23+0000,-36.50,-30.23,-33.82,-47.94,-46.58,-44.46
2021/12/13 03:50:16+0000,-35.11,-31.26,-34.63,-47.41,-46.89,-45.12
2021/12/13 03:51:17+0000,-37.91,-32.21,-33.80,-47.10,-47.34,-46.74
2021/12/13 03:52:09+0000,-38.95,-31.58,-35.48,-47.07,-46.50,-46.77
2021/12/13 03:53:01+0000,-40.01,-27.92,-35.52,-47.97,-46.71,-47.93
2021/12/13 03:53:53+0000,-35.89,-30.69,-34.46,-47.30,-46.64,-46.88
2021/12/13 03:54:46+0000,-39.72,-30.97,-34.07,-46.73,-46.33,-47.04
2021/12/13 03:55:38+0000,-38.26,-32.39,-33.66,-46.95,-46.79,-46.25
2021/12/13 03:56:30+0000,-38.81,-26.43,-34.30,-46.76,-47.20,-46.19
2021/12/13 03:57:22+0000,-38.28,-32.71,-34.01,-47.55,-46.02,-46.77
2021/12/13 03:58:14+0000,-39.64,-32.00,-34.30,-47.41,-46.76,-46.74
2021/12/13 03:59:06+0000,-38.35,-32.78,-35.10,-47.89,-46.68,-47.70
2021/12/13 03:59:59+0000,-41.18,-30.55,-33.67,-47.26,-46.58,-46.58
2021/12/13 04:00:51+0000,-38.23,-33.39,-34.07,-47.20,-46.23,-45.37
2021/12/13 04:01:51+0000,-37.59,-32.11,-34.34,-46.89,-46.60,-46.29
2021/12/13 04:02:43+0000,-40.88,-31.91,-34.09,-47.95,-46.54,-45.57
2021/12/13 04:03:35+0000,-38.74,-32.35,-34.46,-47.15,-46.85,-45.61
2021/12/13 04:04:27+0000,-37.90,-30.28,-34.16,-45.99,-47.03,-45.44
2021/12/13 04:05:19+0000,-39.00,-32.80,-33.22,-46.55,-47.02,-45.39
2021/12/13 04:06:12+0000,-38.99,-31.14,-34.60,-46.73,-47.19,-46.34
2021/12/13 04:07:04+0000,-39.13,-31.75,-34.79,-46.38,-47.16,-46.98
2021/12/13 04:07:56+0000,-37.62,-27.49,-33.75,-48.18,-46.30,-46.15
2021/12/13 04:08:48+0000,-39.04,-31.20,-34.45,-46.70,-46.18,-46.35
2021/12/13 04:09:40+0000,-38.35,-31.77,-34.05,-46.84,-46.64,-47.36
2021/12/13 04:10:33+0000,-37.41,-28.28,-35.57,-47.29,-46.52,-47.13
2021/12/13 04:11:33+0000,-39.80,-28.50,-34.59,-46.84,-46.66,-46.89
2021/12/13 04:12:25+0000,-39.25,-29.64,-34.20,-48.41,-47.17,-48.00
2021/12/13 04:13:17+0000,-39.19,-32.51,-34.86,-47.44,-46.27,-46.72
2021/12/13 04:14:09+0000,-40.45,-30.63,-33.81,-47.37,-45.89,-46.78
2021/12/13 04:15:01+0000,-41.86,-30.44,-32.95,-47.23,-47.22,-47.10
2021/12/13 04:15:53+0000,-38.29,-31.58,-34.28,-47.03,-46.71,-47.67
2021/12/13 04:16:45+0000,-43.19,-31.59,-34.09,-47.91,-47.34,-47.57
2021/12/13 04:17:37+0000,-40.34,-32.52,-33.95,-46.66,-46.64,-46.24
2021/12/13 04:18:29+0000,-42.18,-28.37,-35.31,-47.46,-46.94,-45.76
2021/12/13 04:19:21+0000,-39.87,-33.40,-34.68,-47.93,-46.38,-46.02
2021/12/13 04:20:15+0000,-42.08,-31.63,-34.61,-47.91,-46.22,-45.71
2021/12/13 04:21:15+0000,-41.32,-31.71,-33.59,-47.66,-45.73,-45.30
2021/12/13 04:22:07+0000,-40.38,-33.17,-33.57,-47.67,-45.76,-46.57
2021/12/13 04:23:00+0000,-42.41,-30.02,-33.93,-46.36,-46.33,-47.70
2021/12/13 04:23:52+0000,-35.15,-33.60,-34.05,-47.75,-46.80,-47.42
2021/12/13 04:24:44+0000,-41.68,-32.51,-34.26,-47.81,-46.88,-47.40
2021/12/13 04:25:36+0000,-39.88,-33.36,-34.73,-47.64,-45.73,-47.47
2021/12/13 04:26:28+0000,-38.09,-31.61,-34.42,-47.67,-45.57,-46.51
2021/12/13 04:27:20+0000,-40.80,-31.62,-33.84,-47.78,-46.03,-47.44
2021/12/13 04:28:12+0000,-39.92,-30.12,-34.09,-47.79,-47.15,-47.35
2021/12/13 04:29:04+0000,-40.28,-31.79,-35.09,-47.01,-46.63,-47.77
2021/12/13 04:29:57+0000,-40.20,-31.67,-34.46,-47.20,-47.20,-48.54
2021/12/13 04:30:49+0000,-38.03,-32.21,-34.39,-46.82,-46.33,-47.55
2021/12/13 04:31:50+0000,-40.90,-32.90,-34.32,-47.67,-46.63,-47.60
2021/12/13 04:32:42+0000,-39.98,-30.63,-34.72,-46.83,-46.98,-47.66
2021/12/13 04:33:34+0000,-40.72,-31.92,-34.47,-47.01,-45.87,-46.36
2021/12/13 04:34:26+0000,-38.82,-29.79,-34.06,-47.14,-47.79,-47.16
2021/12/13 04:35:18+0000,-39.21,-29.15,-33.81,-47.21,-46.41,-46.90
2021/12/13 04:36:10+0000,-40.42,-32.09,-34.59,-48.20,-45.76,-46.53
2021/12/13 04:37:03+0000,-40.86,-31.98,-34.40,-47.41,-47.42,-45.35
2021/12/13 04:37:55+0000,-35.91,-31.38,-34.81,-47.31,-46.31,-45.74
2021/12/13 04:38:47+0000,-37.52,-32.11,-34.19,-46.68,-46.81,-46.08
2021/12/13 04:39:39+0000,-34.97,-31.66,-33.77,-48.12,-46.11,-47.41
2021/12/13 04:40:32+0000,-36.14,-31.08,-33.25,-47.46,-46.61,-47.92